CRVULIBAV Weather Reports


time (UTC)temp
C
wind
direction
speed
KPH
gust
KPH
rain 1hr
cm
rain 24hr
cm
rain mn
cm
humidity
%
barometer
mb
20260506222411 13 170 32.2 49.9 0.00 0.00 0.00 67
20260506212154 13 180 29.0 0.0 0.00 0.00 0.00 67
20260506202211 15 170 29.0 0.0 0.00 0.00 0.00 62
20260506192347 16 170 29.0 0.0 0.00 0.00 0.00 55
20260506182244 16 170 29.0 53.1 0.00 0.00 0.00 55
20260506172209 17 160 29.0 0.0 0.00 0.00 0.00 55
20260506162410 17 170 29.0 46.7 0.00 0.00 0.00 51
20260506152227 17 170 22.5 0.0 0.00 0.00 0.00 55
20260506142155 17 180 25.7 0.0 0.00 0.00 0.00 52
20260506132155 17 180 22.5 0.0 0.00 0.00 0.00 52
20260506122154 18 200 25.7 0.0 0.00 0.00 0.00 42
20260506112141 17 200 22.5 38.6 0.00 0.00 0.00 48
20260506102342 16 200 22.5 0.0 0.00 0.00 0.00 59
20260506092123 15 210 22.5 0.0 0.00 0.00 0.00 67
20260506082139 13 220 25.7 0.0 0.00 0.00 0.00 67
20260506072142 12 220 25.7 0.0 0.00 0.00 0.00 76
20260506062213 12 210 25.7 0.0 0.00 0.00 0.00 76
20260506042354 8 200 25.7 0.0 0.00 0.00 0.00 87
20260506032141 10 200 29.0 0.0 0.00 0.00 0.00 76
20260506022141 10 190 25.7 0.0 0.00 0.00 0.00 76
20260506012242 11 190 25.7 0.0 0.00 0.00 0.00 71
20260506002139 11 180 25.7 0.0 0.00 0.00 0.00 71
20260505232138 12 180 25.7 0.0 0.00 0.00 0.00 66